OBJECT AT, 61776

Orbit data source: Space-Track

You're viewing an Uncataloged Satellite

Recently launched and/or uncataloged satellites may have evolving metadata. Metadata may include but not limited to: Owner, Maufacturer, Bus, Motor, and Mission.

OBJECT AT, 61776 is a satellite in SSO that was launched on Mon, 04 Nov 2024 UTC via a SOYUZ-2-1B launch vehicle from the Vostochny Cosmodrome (VOSTO). Unknown objects in Earth's orbit typically refer to objects detected orbiting the Earth but have not yet been identified or cataloged. These objects could be anything from previously untracked satellites, spent rocket stages, debris from satellite collisions, or even natural meteoroids temporarily captured by Earth's gravity.

Loading next visibility...
Identifier
61776, 2024-199AT
Orbit
SSO
Country
Flag of TBDTBD
Related business
Manufacturer
Sputniks
Mission
Operational Commercial Communications
Bus & Motor
CUBESAT 3U?, Unknown motor
Mass
3 kg wet, 3 kg dry
Launch date (UTC)
2024-11-04 (1 year ago)
Launch vehicle
SOYUZ-2-1B
Launch site
Vostochny Cosmodrome (VOSTO)
Object type
Unknown
Shape & HBR
Box, 0.1 m
Radar Cross Section
0.035 m², Small (<0.1 m²)

Expand to show TLE details & history
Last TLE update: 8 hours ago

TLE from 8 hours ago
0 OBJECT AT
1 61776U 24199AT  25295.19420216  .00035131  00000-0  87433-3 0  9991
2 61776  97.3262 163.4602 0013472  79.5863 280.6900 15.40094248100761
Epoch: 2025-10-22T04:39Z
TLE epoch observation values (Epoch: 2025-10-22T04:39:39.066Z)
Latitude
-0.00012°
Longitude
62.67613°
Altitude
447.257 km
Speed
7.645 km/s
True Right ascension
10h 53m 50s
True Declination
0° 00' 00"
Sunlit
Object was in daylight at epoch
Visualization orbit readout
Latitude
Unknown
Longitude
Unknown
Altitude
Unknown
Speed
Unknown
Apparent Right ascension
Unknown
Apparent Declination
Unknown
Sunlit
N/A
Visualization observer readout
Local Sidereal Time
07:24:59
Azimuth
Unknown
Elevation
Unknown
Doppler factor
Unknown
Orbital elements
Apogee altitude
451.956 km
Perigee altitude
433.577 km
Semi-major axis
6,820.904 km
Eccentricity
0.00135
Inclination
97.3262°
RAAN
163.4602°
Arg. of periapsis
79.5863°
True anomaly
280.53825°
Mean anomaly
280.69°
Eccentric anomaly
280.61413°
Mean motion
3.85283 °/min
Orbital period
93.44 mins
BSTAR
0.00087433
Loading maneuver chart data...
Computing Atmospheric mass density...
Loading historical data...
Loading historical data...
Loading historical data...
Loading historical data...
Loading historical data...
Loading historical data...
Loading historical data...

Documentation

Showing up to 5 results
|